Location: A�t Al Qarmoudi
(31.0078°N, 9.1358°W)
Time: 20:52:29
(UTC+00:00)

Daily predictions for brighter satellites

Satellite Brightness Start Highest point End
(mag) Time Altitude Azimuth Time Altitude Azimuth Time Altitude Azimuth
CZ-4C R/B 3.8 18:18:50 10° NE 18:21:41 27° E 18:24:29 10° SSE
SL-16 R/B 2.4 18:16:59 10° S 18:22:27 53° ESE 18:27:57 10° NNE
H-2A R/B 3.8 18:22:01 10° ENE 18:23:45 12° E 18:25:30 10° ESE
Cosmos 1544 Rocket 4.0 18:21:43 10° SSE 18:25:51 39° E 18:30:01 10° NNE
Cosmos 371 Rocket 3.3 18:22:13 10° S 18:26:59 66° ESE 18:31:50 10° NNE
SMAP 3.6 18:22:30 10° S 18:27:07 66° WSW 18:31:45 10° NNW
Cosmos 1300 3.2 18:23:42 10° SSE 18:27:12 36° E 18:30:43 10° NNE
Cosmos 1934 Rocket 4.1 18:21:45 10° SSE 18:27:38 51° E 18:33:29 10° NNE
OAO 3 Rocket 4.2 18:23:41 10° SSW 18:27:56 32° SSE 18:32:15 10° E
ATLAS 5 CENTAUR R/B 4.0 18:25:32 10° W 18:27:57 16° NW 18:30:29 10° N
Cosmos 1939 Rocket 3.7 18:26:36 10° S 18:30:23 54° W 18:34:16 10° NNW
Okean O Rocket 2.2 18:27:04 10° SE 18:30:56 33° ENE 18:34:50 10° N
CORIOLIS 4.4 18:26:09 10° S 18:31:29 76° WSW 18:36:50 10° NNW
Iridium 4 Rocket 3.9 18:31:30 10° NNE 18:35:57 37° E 18:40:46 10° SSE
Cosmos 2322 Rocket 2.4 18:30:44 10° S 18:36:07 51° ESE 18:41:31 10° NNE
Cosmos 2082 4.3 18:31:08 10° NNW 18:36:41 64° WSW 18:42:12 10° S
Radarsat Rocket 4.4 18:31:04 10° S 18:37:09 75° WSW 18:44:01 10° NNW
H-2A R/B 2.1 18:35:17 10° SSE 18:40:33 65° ENE 18:45:56 10° N
Tiangong 3.6 18:41:27 10° NW 18:43:15 14° N 18:45:03 10° NNE
Cosmos 1703 3.2 18:41:23 10° N 18:45:17 88° W 18:49:10 10° S
FALCON 9 DEB 3.9 18:43:46 10° S 18:46:15 25° SE 18:47:23 20° E
Landsat 5 3.7 18:42:29 10° N 18:46:57 86° WNW 18:51:27 10° SSW
Cosmos 2360 Rocket 2.8 18:42:11 10° SSE 18:47:14 35° ESE 18:52:19 10° NE
Cosmos 2333 Rocket 3.7 18:44:22 10° SE 18:47:26 15° E 18:47:58 15° E
deb Chang Zheng 4 3.6 18:47:27 10° S 18:51:37 82° WSW 18:55:51 10° NNW
NOSS 2-3 (E) 4.3 18:48:18 10° SW 18:52:07 48° WNW 18:56:11 10° NNE
FALCON 9 DEB 4.3 18:52:53 10° S 18:55:06 19° SE 18:55:09 19° SE
Cosmos 405 Rocket 2.9 18:51:32 10° N 18:55:33 82° W 18:59:34 10° S
USA 229 DEB 3.5 18:49:53 10° SSW 18:56:05 72° ESE 19:02:36 10° NNE
USA 229 3.5 18:50:01 10° SSW 18:56:11 71° ESE 19:02:41 10° NE
CZ-4B R/B 3.3 18:51:22 10° SSE 18:57:00 88° ENE 19:02:41 10° NNW
Okean 1-7 Rocket 3.6 18:52:41 10° N 18:57:01 55° E 19:01:23 10° SSE
Cosmos 2123 Rocket 4.0 18:53:43 10° N 19:00:00 66° E 19:06:13 10° SSE
Meteor 1-11 4.3 18:55:24 10° N 19:00:52 51° E 19:06:21 10° SSE
COSMO-SKYMED 1 3.5 18:56:59 10° N 19:01:11 50° WNW 19:05:22 10° SSW
Cosmos 44 3.5 18:56:01 10° SSW 19:01:19 64° ESE 19:06:40 10° NE
ARGOS 3.1 18:56:05 10° SSE 19:01:22 60° ENE 19:06:41 10° N
Lacrosse 4 Rocket 3.4 19:02:49 10° NNE 19:04:08 14° NE 19:04:08 14° NE
FALCON 9 DEB 4.2 19:03:26 10° S 19:05:27 23° SE 19:05:27 23° SE
Delta 2 Rocket 3.7 19:03:20 10° WNW 19:06:38 39° N 19:07:53 27° NE
Milstar 3 Cent rocket 3.6 19:02:17 10° SW 19:07:50 41° SSE 19:13:31 22° E
Cosmos 1269 Rocket 4.0 19:05:45 10° NNW 19:11:03 89° ENE 19:16:19 10° SSE
Gbstr 26 Del rocket 4.5 19:05:36 10° NW 19:12:59 64° NE 19:18:54 20° ESE
Cosmos 2263 Rocket 2.2 19:10:31 10° NNW 19:16:05 79° WSW 19:21:37 10° SSE
NOSS 3-1 (A) 3.3 19:13:44 10° SW 19:18:44 69° WNW 19:24:24 10° NNE
Cosmos 1328 4.3 19:14:56 10° NNW 19:18:55 62° W 19:22:54 10° S
Cosmos 2227 4.1 19:14:55 10° NNW 19:20:42 86° ENE 19:26:26 10° SSE
Meteor 1-4 Rocket 3.3 19:24:23 10° SSW 19:27:49 51° W 19:31:13 10° N
USA 267 3.3 19:21:24 10° SE 19:27:58 82° SW 19:34:33 10° NW
CZ-2C R/B 4.1 19:24:19 10° N 19:29:28 39° WNW 19:34:29 10° SW
Cosmos 2228 3.4 19:28:05 10° S 19:31:24 44° SE 19:31:24 44° SE
Cosmos 1626 Rocket 3.5 19:29:54 10° N 19:34:13 79° W 19:38:30 10° S
IRS-1C Rocket 4.1 19:36:51 45° ESE 19:38:05 56° ENE 19:43:14 10° N
CZ-4 R/B 1.2 19:36:56 37° SSE 19:38:26 90° WSW 19:42:29 10° NNW
Cosmos 1605 Rocket 4.5 19:33:01 10° SSW 19:39:08 62° W 19:45:25 10° N
H-2A R/B 2.8 19:36:27 10° S 19:40:49 68° WSW 19:45:03 10° NNW
CZ-2C R/B 1.7 19:38:24 10° WNW 19:41:04 46° NW 19:41:04 46° NW
YAOGAN 1 2.7 19:43:23 10° S 19:47:41 70° W 19:51:59 10° NNW
Cosmos 1844 Rocket 4.0 19:44:24 10° N 19:47:06 25° NNE 19:47:06 25° NNE
Cosmos 1447 Rocket 4.3 19:50:55 10° N 19:57:05 86° E 20:03:14 10° S
H-II Stage 2 4.4 19:55:34 10° WSW 19:59:07 52° S 20:00:38 44° SE
H-2A R/B 3.3 19:55:56 10° N 19:59:46 38° WNW 20:03:40 10° SW
Cosmos 2333 4.1 19:55:14 10° SSW 20:00:50 88° WNW 20:01:39 67° NNE
OAO 3 Rocket 3.9 20:06:23 10° WSW 20:10:03 52° W 20:10:03 52° W
CZ-3 Stage 3 3.5 19:36:01 10° W 20:14:49 75° SSW 20:17:07 55° SE
Centaur D-1A AC-32 4.1 20:23:21 10° WSW 20:27:10 27° SW 20:27:10 27° SW
Cosmos 2219 Rocket 3.6 20:23:30 10° SSW 20:26:12 30° SSW 20:26:12 30° SSW
Cosmos 2333 Rocket 3.0 20:25:36 10° SW 20:30:06 48° WSW 20:30:06 48° WSW
Cosmos 2360 Rocket 4.2 20:26:40 10° WSW 20:31:12 25° WNW 20:35:48 10° N
Cosmos 839 Rocket 4.3 20:25:08 10° NNW 20:31:32 66° W 20:31:32 66° W
Lacrosse 4 Rocket 4.4 20:40:06 10° NW 20:40:28 12° NW 20:40:28 12° NW
Milstar 3 Cent rocket 4.5 21:37:58 10° W 21:42:20 41° WSW 21:42:20 41° WSW
